Regional Weather Roundup
Issued by NWS

Home | Current Version | Previous Version | Graphics & Text | Print | Product List | Glossary On
Versions: 1 2 3 4 5 6 7 8 9 10 11 12 13 14 15 16 17 18 19 20 21 22 23 24 25 26 27 28 29 30 31 32 33 34 35 36 37 38 39 40 41 42 43 44 45 46 47 48 49 50
000
ASUS43 KFSD 182202
RWRSD

WEATHER ROUNDUP FOR SOUTH DAKOTA
NATIONAL WEATHER SERVICE SIOUX FALLS SD
400 PM CST SAT FEB 18 2017

NOTE: "FAIR" INDICATES FEW OR NO CLOUDS BELOW 12,000 FEET WITH NO
SIGNIFICANT WEATHER AND/OR OBSTRUCTIONS TO VISIBILITY.


SDZ001>005-009-010-012>017-182300-
NORTHWEST AND NORTH CENTRAL SOUTH DAKOTA

CITY           SKY/WX    TMP DP  RH WIND       PRES   REMARKS
BUFFALO          N/A     60  35  39 W21       29.51R
FAITH            N/A     60  33  36 S13       29.57F
MOBRIDGE       MOSUNNY   45  31  58 SE15      29.62F
$$

SDZ012>016-024>037-041>051-057-063-072>074-182300-
SOUTHWEST AND SOUTH CENTRAL SOUTH DAKOTA

CITY           SKY/WX    TMP DP  RH WIND       PRES   REMARKS
RAPID CTY ARPT MOSUNNY   68  30  24 W16       29.58S
PIERRE         SUNNY     59  35  40 SE15      29.64F
CUSTER         SUNNY     56  26  31 SW20G33   29.65R
ELLSWORTH AFB  SUNNY     67  32  27 SW12      29.58S
PHILIP         CLOUDY    65  31  28 S18G24    29.60F
PINE RIDGE     SUNNY     53  33  46 S14       29.64S
SPEARFISH      FAIR      64  30  27 SW20G25   29.58F
WINNER         FAIR      66  29  24 S18       29.69F
$$

SDZ004>011-016>023-039-040-182300-
NORTHEAST SOUTH DAKOTA

CITY           SKY/WX    TMP DP  RH WIND       PRES   REMARKS
ABERDEEN       MOSUNNY   50  39  66 S6        29.74S
WATERTOWN      CLOUDY    48  39  71 SE7       29.74F
BROOKINGS      CLOUDY    56  38  50 SE8       29.76R
SISSETON         N/A     52  39  61 W5        29.75R
$$

SDZ017-020-022-023-036>040-048>070-182300-
SOUTHEAST SOUTH DAKOTA

CITY           SKY/WX    TMP DP  RH WIND       PRES   REMARKS
SIOUX FALLS    PTSUNNY   59  41  51 S7        29.77R
HURON          MOSUNNY   58  40  51 SE8       29.73S
CHAMBERLAIN    SUNNY     64  37  36 SE13      29.71S
MITCHELL       SUNNY     60  39  45 S10       29.74F
YANKTON        SUNNY     61  36  39 SE10      29.74F
$$

ABBREVIATIONS USED IN REMARKS
   TC - TEMPERATURE IN CELSIUS
  WCI - WIND CHILL INDEX
   HX - HEAT INDEX
  VSB - VISIBILITY





USA.gov is the U.S. government's official web portal to all federal, state and local government web resources and services.